Weather History for Crestview, FL

Change the Weather History Date:

Thursday, March 7, 2013

  Actual Average Record
Temperature  
Mean Temperature 50 °F -  
Max Temperature 66 °F 70 °F 86 °F (1992)
Min Temperature 33 °F 46 °F 31 °F (1993)
Degree Days  
Heating Degree Days 16    
Moisture  
Dew Point 30 °F    
Average Humidity 60    
Maximum Humidity 89    
Minimum Humidity 23    
Precipitation  
Precipitation 0.00 in - - ()
Sea Level Pressure  
Sea Level Pressure 30.27 in    
Wind  
Wind Speed 4 mph (NNW)    
Max Wind Speed 8 mph    
Max Gust Speed -    
Visibility 10 miles    
Events      
Averages and records for this station are not official NWS values.
T = Trace of Precipitation, MM = Missing Value Source: NWS Daily Summary

Daily Weather History Graph

Daily Weather History Graph

Search for Another Location

Airport:

Trip Planner

Search our weather history database for the weather conditions in past years. The results will help you decide how hot, cold, wet, or windy it might be!

Date:

Astronomy

Mar. 07, 2013 Rise Set
Actual Time 6:05 AM CST 5:49 PM CST
Civil Twilight 5:41 AM CST 6:13 PM CST
Nautical Twilight 5:13 AM CST 6:41 PM CST
Astronomical Twilight 4:45 AM CST 7:09 PM CST
Moon 2:50 AM CST (3/7) 1:49 PM CST (3/7)
Length of Visible Light 12h 31m
Length of Day
11h 43m
Waning Crescent, 20% of the Moon is Illuminated
Mar 7
Waning Crescent
Mar 11
New
Mar 19
First Quarter
Mar 27
Full
Apr 2
Last Quarter

Hourly Weather History & Observations

Time (CST) Temp. Windchill Dew Point Humidity Pressure Visibility Wind Dir Wind Speed Gust Speed Precip Events Conditions
12:53 AM 39.0 °F 35.7 °F 28.9 °F 67% 30.27 in 10.0 mi NNW 4.6 mph - N/A   Clear
1:53 AM 37.0 °F 33.3 °F 28.9 °F 73% 30.27 in 10.0 mi North 4.6 mph - N/A   Clear
2:53 AM 37.0 °F 33.3 °F 28.9 °F 73% 30.26 in 10.0 mi North 4.6 mph - N/A   Clear
3:53 AM 35.1 °F 32.2 °F 28.0 °F 76% 30.26 in 10.0 mi North 3.5 mph - N/A   Clear
4:53 AM 34.0 °F 31.0 °F 28.0 °F 79% 30.27 in 10.0 mi North 3.5 mph - N/A   Clear
5:53 AM 33.1 °F 30.0 °F 28.0 °F 82% 30.27 in 10.0 mi NE 3.5 mph - N/A   Clear
6:53 AM 37.0 °F 33.3 °F 28.9 °F 73% 30.30 in 10.0 mi North 4.6 mph - N/A   Clear
7:53 AM 41.0 °F 37.1 °F 28.9 °F 62% 30.32 in 10.0 mi Variable 5.8 mph - N/A   Clear
8:53 AM 46.9 °F - 28.0 °F 48% 30.34 in 10.0 mi North 8.1 mph - N/A   Clear
9:53 AM 50.0 °F - 28.0 °F 43% 30.34 in 10.0 mi NW 8.1 mph - N/A   Clear
10:53 AM 55.9 °F - 26.1 °F 32% 30.32 in 10.0 mi Variable 4.6 mph - N/A   Clear
12:53 PM 62.1 °F - 26.1 °F 25% 30.26 in 10.0 mi Calm Calm - N/A   Clear
1:53 PM 64.9 °F - 26.1 °F 23% 30.24 in 10.0 mi NNW 6.9 mph - N/A   Clear
2:53 PM 66.0 °F - 28.0 °F 24% 30.23 in 10.0 mi NW 8.1 mph - N/A   Clear
3:53 PM 64.9 °F - 28.0 °F 25% 30.22 in 10.0 mi NNW 6.9 mph - N/A   Clear
4:53 PM 64.0 °F - 30.0 °F 28% 30.22 in 10.0 mi NNW 4.6 mph - N/A   Clear
5:53 PM 55.0 °F - 37.9 °F 53% 30.24 in 10.0 mi Calm Calm - N/A   Clear
6:53 PM 50.0 °F - 37.9 °F 63% 30.24 in 10.0 mi Calm Calm - N/A   Clear
7:53 PM 44.1 °F - 37.9 °F 79% 30.25 in 10.0 mi Calm Calm - N/A   Clear
8:53 PM 43.0 °F - 37.0 °F 80% 30.26 in 10.0 mi Calm Calm - N/A   Clear
9:53 PM 39.0 °F - 35.1 °F 86% 30.27 in 10.0 mi Calm Calm - N/A   Clear
10:53 PM 37.0 °F - 34.0 °F 89% 30.26 in 7.0 mi Calm Calm - N/A   Clear
11:53 PM 35.1 °F - 32.0 °F 89% 30.26 in 6.0 mi Calm Calm - N/A   Clear